,

(GMT )
Tubuai

Weather History for NTAT - March, 2013

Change the Weather History Date:

Friday, March 1, 2013

  Actual Average Record
Temperature  
Mean Temperature 78 °F -  
Max Temperature 81 °F - - ()
Min Temperature 74 °F - - ()
Cooling Degree Days 12    
Growing Degree Days 28 (Base 50)    
Moisture  
Dew Point 67 °F    
Average Humidity 64    
Maximum Humidity 72    
Minimum Humidity 57    
Precipitation  
Precipitation 0.04 in - - ()
Sea Level Pressure  
Sea Level Pressure 29.95 in    
Wind  
Wind Speed 9 mph ()    
Max Wind Speed 15 mph    
Max Gust Speed -    
T = Trace of Precipitation, MM = Missing Value Source: Averaged Metar Reports

Daily Weather History Graph

Daily Weather History Graph

Search for Another Location

Airport or City:

Trip Planner

Search our weather history database for the weather conditions in past years. The results will help you decide how hot, cold, wet, or windy it might be!

Date:

Astronomy

Mar. 01, 2013 Rise Set
Actual Time 5:53 AM TAHT 6:26 PM TAHT
Civil Twilight 5:30 AM TAHT 6:48 PM TAHT
Nautical Twilight 5:04 AM TAHT 7:15 PM TAHT
Astronomical Twilight 4:37 AM TAHT 7:42 PM TAHT
Moon 9:11 PM TAHT (3/1) 9:35 AM TAHT (3/1)
Length of Visible Light 13h 18m
Length of Day
12h 32m
Waning Gibbous, 81% of the Moon is Illuminated
Mar 1
Waning Gibbous
Mar 4
Last Quarter
Mar 11
New
Mar 19
First Quarter
Mar 26
Full

Hourly Weather History & Observations

Time (TAHT) Temp. Dew Point Humidity Pressure Visibility Wind Dir Wind Speed Gust Speed Precip Events Conditions
12:00 AM 76 °F 68 °F 69% 29.98 in - ESE 9.2 mph - -  
1:00 AM 76 °F 67 °F 66% 29.98 in - ESE 9.2 mph - -  
2:00 AM 75 °F 67 °F 69% 29.95 in - ESE 11.2 mph - -  
3:00 AM 75 °F 66 °F 67% 29.94 in - ESE 5.8 mph - -  
4:00 AM 75 °F 68 °F 72% 29.95 in - ESE 8.1 mph - -  
6:00 AM 76 °F 68 °F 69% 29.96 in - ESE 8.1 mph - -  
7:00 AM 76 °F 67 °F 68% 29.98 in - ESE 8.1 mph - -  
8:00 AM 78 °F 68 °F 65% 29.99 in - ESE 8.1 mph - -  
9:00 AM 80 °F 68 °F 58% 29.99 in - ESE 13.8 mph - -  
10:00 AM 81 °F 68 °F 57% 29.98 in - ESE 12.7 mph - -  
11:00 AM 80 °F 68 °F 59% 29.97 in - ESE 13.8 mph - -  
12:00 PM 80 °F 68 °F 59% 29.96 in - ESE 13.8 mph - -  
1:00 PM 80 °F 68 °F 60% 29.95 in - ESE 15.0 mph - -  
2:00 PM 80 °F 68 °F 60% 29.94 in - ESE 13.8 mph - -  
3:00 PM 78 °F 68 °F 65% 29.93 in - ESE 13.8 mph - -  
4:00 PM 79 °F 68 °F 62% 29.91 in - ESE 12.7 mph - -  
5:00 PM 79 °F 67 °F 59% 29.90 in - ESE 11.5 mph - -  
6:00 PM 77 °F 67 °F 65% 29.92 in - ESE 13.8 mph - -  
7:00 PM 76 °F 66 °F 64% 29.93 in - ESE 11.5 mph - -  
8:00 PM 76 °F 66 °F 63% 29.94 in - ESE 8.1 mph - -  
10:00 PM 75 °F 65 °F 65% 29.98 in - ESE 4.6 mph - -  
11:00 PM 75 °F 66 °F 67% 29.96 in - ESE 5.8 mph - -